Year,Month,Day,Hour,Minute,Value (Times are PST for temperature in C)
2016,04,30,00,00,10.10
2016,04,30,00,01,10.10
2016,04,30,00,02,10.00
2016,04,30,00,03,10.00
2016,04,30,00,04,10.00
2016,04,30,00,05,10.00
2016,04,30,00,06,10.00
2016,04,30,00,07,10.00
2016,04,30,00,08,10.00
2016,04,30,00,09,9.90
2016,04,30,00,10,9.90
2016,04,30,00,11,9.90
2016,04,30,00,12,9.90
2016,04,30,00,13,9.90
2016,04,30,00,14,9.90
2016,04,30,00,15,9.90
2016,04,30,00,16,9.80
2016,04,30,00,17,9.80
2016,04,30,00,18,9.80
2016,04,30,00,19,9.80
2016,04,30,00,20,9.80
2016,04,30,00,21,9.80
2016,04,30,00,22,9.80
2016,04,30,00,23,9.80
2016,04,30,00,24,9.80
2016,04,30,00,25,9.80
2016,04,30,00,26,9.80
2016,04,30,00,27,9.80
2016,04,30,00,28,9.80
2016,04,30,00,29,9.80
2016,04,30,00,30,9.70
2016,04,30,00,31,9.70
2016,04,30,00,32,9.70
2016,04,30,00,33,9.70
2016,04,30,00,34,9.70
2016,04,30,00,35,9.70
2016,04,30,00,36,9.70
2016,04,30,00,37,9.70
2016,04,30,00,38,9.70
2016,04,30,00,39,9.70
2016,04,30,00,40,9.70
2016,04,30,00,41,9.70
2016,04,30,00,42,9.70
2016,04,30,00,43,9.70
2016,04,30,00,44,9.70
2016,04,30,00,45,9.70
2016,04,30,00,46,9.70
2016,04,30,00,47,9.70
2016,04,30,00,48,9.70
2016,04,30,00,49,9.70
2016,04,30,00,50,9.70
2016,04,30,00,51,9.60
2016,04,30,00,52,9.60
2016,04,30,00,53,9.60
2016,04,30,00,54,9.60
2016,04,30,00,55,9.60
2016,04,30,00,56,9.60
2016,04,30,00,57,9.60
2016,04,30,00,58,9.60
2016,04,30,00,59,9.60
2016,04,30,01,00,9.60
2016,04,30,01,01,9.60
2016,04,30,01,02,9.60
2016,04,30,01,03,9.60
2016,04,30,01,04,9.60
2016,04,30,01,05,9.60
2016,04,30,01,06,9.60
2016,04,30,01,07,9.50
2016,04,30,01,08,9.50
2016,04,30,01,09,9.50
2016,04,30,01,10,9.50
2016,04,30,01,11,9.50
2016,04,30,01,12,9.40
2016,04,30,01,13,9.40
2016,04,30,01,14,9.40
2016,04,30,01,15,9.40
2016,04,30,01,16,9.40
2016,04,30,01,17,9.40
2016,04,30,01,18,9.40
2016,04,30,01,19,9.40
2016,04,30,01,20,9.30
2016,04,30,01,21,9.30
2016,04,30,01,22,9.30
2016,04,30,01,23,9.30
2016,04,30,01,24,9.30
2016,04,30,01,25,9.30
2016,04,30,01,26,9.30
2016,04,30,01,27,9.20
2016,04,30,01,28,9.20
2016,04,30,01,29,9.20
2016,04,30,01,30,9.20
2016,04,30,01,31,9.20
2016,04,30,01,32,9.20
2016,04,30,01,33,9.20
2016,04,30,01,34,9.20
2016,04,30,01,35,9.20
2016,04,30,01,36,9.10
2016,04,30,01,37,9.10
2016,04,30,01,38,9.10
2016,04,30,01,39,9.00
2016,04,30,01,40,9.00
2016,04,30,01,41,9.00
2016,04,30,01,42,8.90
2016,04,30,01,43,8.90
2016,04,30,01,44,8.90
2016,04,30,01,45,8.90
2016,04,30,01,46,8.90
2016,04,30,01,47,8.90
2016,04,30,01,48,8.90
2016,04,30,01,49,8.90
2016,04,30,01,50,8.90
2016,04,30,01,51,8.90
2016,04,30,01,52,8.90
2016,04,30,01,53,8.90
2016,04,30,01,54,8.90
2016,04,30,01,55,8.80
2016,04,30,01,56,8.80
2016,04,30,01,57,8.80
2016,04,30,01,58,8.80
2016,04,30,01,59,8.80
2016,04,30,02,00,8.80
2016,04,30,02,01,8.80
2016,04,30,02,02,8.80
2016,04,30,02,03,8.80
2016,04,30,02,04,8.80
2016,04,30,02,05,8.80
2016,04,30,02,06,8.80
2016,04,30,02,07,8.80
2016,04,30,02,08,8.80
2016,04,30,02,09,8.80
2016,04,30,02,10,8.80
2016,04,30,02,11,8.80
2016,04,30,02,12,8.80
2016,04,30,02,13,8.80
2016,04,30,02,14,8.80
2016,04,30,02,15,8.80
2016,04,30,02,16,8.80
2016,04,30,02,17,8.80
2016,04,30,02,18,8.80
2016,04,30,02,19,8.80
2016,04,30,02,20,8.80
2016,04,30,02,21,8.80
2016,04,30,02,22,8.80
2016,04,30,02,23,8.80
2016,04,30,02,24,8.80
2016,04,30,02,25,8.80
2016,04,30,02,26,8.80
2016,04,30,02,27,8.80
2016,04,30,02,28,8.80
2016,04,30,02,29,8.80
2016,04,30,02,30,8.90
2016,04,30,02,31,8.90
2016,04,30,02,32,8.90
2016,04,30,02,33,8.90
2016,04,30,02,34,8.90
2016,04,30,02,35,8.90
2016,04,30,02,36,8.90
2016,04,30,02,37,8.90
2016,04,30,02,38,8.90
2016,04,30,02,39,8.90
2016,04,30,02,40,8.90
2016,04,30,02,41,8.90
2016,04,30,02,42,8.90
2016,04,30,02,43,8.80
2016,04,30,02,44,8.80
2016,04,30,02,45,8.80
2016,04,30,02,46,8.80
2016,04,30,02,47,8.80
2016,04,30,02,48,8.80
2016,04,30,02,49,8.80
2016,04,30,02,50,8.80
2016,04,30,02,51,8.80
2016,04,30,02,52,8.80
2016,04,30,02,53,8.80
2016,04,30,02,54,8.80
2016,04,30,02,55,8.90
2016,04,30,02,56,8.90
2016,04,30,02,57,8.90
2016,04,30,02,58,8.90
2016,04,30,02,59,8.90
2016,04,30,03,00,8.90
2016,04,30,03,01,8.90
2016,04,30,03,02,8.90
2016,04,30,03,03,8.90
2016,04,30,03,04,8.90
2016,04,30,03,05,8.90
2016,04,30,03,06,8.90
2016,04,30,03,07,8.90
2016,04,30,03,08,8.90
2016,04,30,03,09,8.80
2016,04,30,03,10,8.80
2016,04,30,03,11,8.80
2016,04,30,03,12,8.80
2016,04,30,03,13,8.80
2016,04,30,03,14,8.80
2016,04,30,03,15,8.80
2016,04,30,03,16,8.80
2016,04,30,03,17,8.70
2016,04,30,03,18,8.70
2016,04,30,03,19,8.70
2016,04,30,03,20,8.60
2016,04,30,03,21,8.60
2016,04,30,03,22,8.60
2016,04,30,03,23,8.50
2016,04,30,03,24,8.50
2016,04,30,03,25,8.50
2016,04,30,03,26,8.50
2016,04,30,03,27,8.50
2016,04,30,03,28,8.50
2016,04,30,03,29,8.50
2016,04,30,03,30,8.50
2016,04,30,03,31,8.50
2016,04,30,03,32,8.50
2016,04,30,03,33,8.40
2016,04,30,03,34,8.40
2016,04,30,03,35,8.40
2016,04,30,03,36,8.40
2016,04,30,03,37,8.40
2016,04,30,03,38,8.40
2016,04,30,03,39,8.40
2016,04,30,03,40,8.40
2016,04,30,03,41,8.40
2016,04,30,03,42,8.40
2016,04,30,03,43,8.40
2016,04,30,03,44,8.40
2016,04,30,03,45,8.40
2016,04,30,03,46,8.40
2016,04,30,03,47,8.40
2016,04,30,03,48,8.40
2016,04,30,03,49,8.40
2016,04,30,03,50,8.40
2016,04,30,03,51,8.40
2016,04,30,03,52,8.30
2016,04,30,03,53,8.30
2016,04,30,03,54,8.30
2016,04,30,03,55,8.20
2016,04,30,03,56,8.20
2016,04,30,03,57,8.20
2016,04,30,03,58,8.20
2016,04,30,03,59,8.20
2016,04,30,04,00,8.20
2016,04,30,04,01,8.20
2016,04,30,04,02,8.20
2016,04,30,04,03,8.20
2016,04,30,04,04,8.20
2016,04,30,04,05,8.20
2016,04,30,04,06,8.20
2016,04,30,04,07,8.20
2016,04,30,04,08,8.10
2016,04,30,04,09,8.10
2016,04,30,04,10,8.10
2016,04,30,04,11,8.10
2016,04,30,04,12,8.10
2016,04,30,04,13,8.10
2016,04,30,04,14,8.10
2016,04,30,04,15,8.10
2016,04,30,04,16,8.00
2016,04,30,04,17,8.00
2016,04,30,04,18,8.00
2016,04,30,04,19,8.00
2016,04,30,04,20,8.00
2016,04,30,04,21,8.00
2016,04,30,04,22,8.00
2016,04,30,04,23,8.00
2016,04,30,04,24,8.00
2016,04,30,04,25,8.00
2016,04,30,04,26,8.00
2016,04,30,04,27,8.00
2016,04,30,04,28,8.00
2016,04,30,04,29,8.00
2016,04,30,04,30,8.00
2016,04,30,04,31,8.00
2016,04,30,04,32,8.00
2016,04,30,04,33,8.00
2016,04,30,04,34,8.00
2016,04,30,04,35,8.00
2016,04,30,04,36,8.00
2016,04,30,04,37,8.00
2016,04,30,04,38,8.00
2016,04,30,04,39,8.10
2016,04,30,04,40,8.10
2016,04,30,04,41,8.10
2016,04,30,04,42,8.10
2016,04,30,04,43,8.10
2016,04,30,04,44,8.10
2016,04,30,04,45,8.10
2016,04,30,04,46,8.00
2016,04,30,04,47,8.00
2016,04,30,04,48,8.00
2016,04,30,04,49,8.00
2016,04,30,04,50,8.00
2016,04,30,04,51,7.90
2016,04,30,04,52,7.90
2016,04,30,04,53,7.90
2016,04,30,04,54,7.90
2016,04,30,04,55,7.90
2016,04,30,04,56,7.90
2016,04,30,04,57,7.90
2016,04,30,04,58,7.90
2016,04,30,04,59,7.90
2016,04,30,05,00,8.00
2016,04,30,05,01,8.10
2016,04,30,05,02,8.10
2016,04,30,05,03,8.20
2016,04,30,05,04,8.30
2016,04,30,05,05,8.40
2016,04,30,05,06,8.40
2016,04,30,05,07,8.50
2016,04,30,05,08,8.60
2016,04,30,05,09,8.60
2016,04,30,05,10,8.70
2016,04,30,05,11,8.70
2016,04,30,05,12,8.80
2016,04,30,05,13,8.80
2016,04,30,05,14,8.80
2016,04,30,05,15,8.90
2016,04,30,05,16,8.90
2016,04,30,05,17,8.90
2016,04,30,05,18,8.90
2016,04,30,05,19,9.00
2016,04,30,05,20,9.00
2016,04,30,05,21,9.00
2016,04,30,05,22,9.00
2016,04,30,05,23,9.00
2016,04,30,05,24,9.00
2016,04,30,05,25,9.10
2016,04,30,05,26,9.10
2016,04,30,05,27,9.10
2016,04,30,05,28,9.10
2016,04,30,05,29,9.00
2016,04,30,05,30,9.10
2016,04,30,05,31,9.10
2016,04,30,05,32,9.10
2016,04,30,05,33,9.00
2016,04,30,05,34,9.00
2016,04,30,05,35,8.90
2016,04,30,05,36,8.90
2016,04,30,05,37,8.90
2016,04,30,05,38,8.90
2016,04,30,05,39,8.80
2016,04,30,05,40,8.80
2016,04,30,05,41,8.70
2016,04,30,05,42,8.70
2016,04,30,05,43,8.70
2016,04,30,05,44,8.60
2016,04,30,05,45,8.60
2016,04,30,05,46,8.60
2016,04,30,05,47,8.50
2016,04,30,05,48,8.50
2016,04,30,05,49,8.50
2016,04,30,05,50,8.50
2016,04,30,05,51,8.50
2016,04,30,05,52,8.40
2016,04,30,05,53,8.40
2016,04,30,05,54,8.40
2016,04,30,05,55,8.30
2016,04,30,05,56,8.30
2016,04,30,05,57,8.30
2016,04,30,05,58,8.30
2016,04,30,05,59,8.30
2016,04,30,06,00,8.30
2016,04,30,06,01,8.30
2016,04,30,06,02,8.30
2016,04,30,06,03,8.30
2016,04,30,06,04,8.30
2016,04,30,06,05,8.30
2016,04,30,06,06,8.30
2016,04,30,06,07,8.30
2016,04,30,06,08,8.30
2016,04,30,06,09,8.30
2016,04,30,06,10,8.30
2016,04,30,06,11,8.40
2016,04,30,06,12,8.40
2016,04,30,06,13,8.40
2016,04,30,06,14,8.40
2016,04,30,06,15,8.40
2016,04,30,06,16,8.40
2016,04,30,06,17,8.40
2016,04,30,06,18,8.50
2016,04,30,06,19,8.50
2016,04,30,06,20,8.50
2016,04,30,06,21,8.50
2016,04,30,06,22,8.50
2016,04,30,06,23,8.50
2016,04,30,06,24,8.60
2016,04,30,06,25,8.60
2016,04,30,06,26,8.60
2016,04,30,06,27,8.60
2016,04,30,06,28,8.60
2016,04,30,06,29,8.70
2016,04,30,06,30,8.70
2016,04,30,06,31,8.70
2016,04,30,06,32,8.70
2016,04,30,06,33,8.70
2016,04,30,06,34,8.70
2016,04,30,06,35,8.70
2016,04,30,06,36,8.70
2016,04,30,06,37,8.70
2016,04,30,06,38,8.80
2016,04,30,06,39,8.80
2016,04,30,06,40,8.80
2016,04,30,06,41,8.80
2016,04,30,06,42,8.80
2016,04,30,06,43,8.90
2016,04,30,06,44,8.90
2016,04,30,06,45,8.90
2016,04,30,06,46,9.00
2016,04,30,06,47,9.00
2016,04,30,06,48,9.00
2016,04,30,06,49,9.10
2016,04,30,06,50,9.10
2016,04,30,06,51,9.10
2016,04,30,06,52,9.20
2016,04,30,06,53,9.20
2016,04,30,06,54,9.20
2016,04,30,06,55,9.20
2016,04,30,06,56,9.30
2016,04,30,06,57,9.30
2016,04,30,06,58,9.30
2016,04,30,06,59,9.40
2016,04,30,07,00,9.40
2016,04,30,07,01,9.50
2016,04,30,07,02,9.50
2016,04,30,07,03,9.60
2016,04,30,07,04,9.60
2016,04,30,07,05,9.70
2016,04,30,07,06,9.70
2016,04,30,07,07,9.70
2016,04,30,07,08,9.80
2016,04,30,07,09,9.80
2016,04,30,07,10,9.80
2016,04,30,07,11,9.80
2016,04,30,07,12,9.80
2016,04,30,07,13,9.90
2016,04,30,07,14,9.90
2016,04,30,07,15,9.90
2016,04,30,07,16,9.90
2016,04,30,07,17,10.00
2016,04,30,07,18,10.00
2016,04,30,07,19,10.00
2016,04,30,07,20,10.10
2016,04,30,07,21,10.10
2016,04,30,07,22,10.20
2016,04,30,07,23,10.20
2016,04,30,07,24,10.30
2016,04,30,07,25,10.30
2016,04,30,07,26,10.30
2016,04,30,07,27,10.40
2016,04,30,07,28,10.40
2016,04,30,07,29,10.40
2016,04,30,07,30,10.40
2016,04,30,07,31,10.40
2016,04,30,07,32,10.30
2016,04,30,07,33,10.30
2016,04,30,07,34,10.40
2016,04,30,07,35,10.40
2016,04,30,07,36,10.40
2016,04,30,07,37,10.40
2016,04,30,07,38,10.40
2016,04,30,07,39,10.40
2016,04,30,07,40,10.40
2016,04,30,07,41,10.50
2016,04,30,07,42,10.50
2016,04,30,07,43,10.60
2016,04,30,07,44,10.60
2016,04,30,07,45,10.70
2016,04,30,07,46,10.70
2016,04,30,07,47,10.70
2016,04,30,07,48,10.70
2016,04,30,07,49,10.70
2016,04,30,07,50,10.70
2016,04,30,07,51,10.70
2016,04,30,07,52,10.80
2016,04,30,07,53,10.80
2016,04,30,07,54,10.80
2016,04,30,07,55,10.80
2016,04,30,07,56,10.80
2016,04,30,07,57,10.90
2016,04,30,07,58,10.90
2016,04,30,07,59,10.90
2016,04,30,08,00,11.00
2016,04,30,08,01,11.00
2016,04,30,08,02,11.10
2016,04,30,08,03,11.10
2016,04,30,08,04,11.20
2016,04,30,08,05,11.20
2016,04,30,08,06,11.20
2016,04,30,08,07,11.20
2016,04,30,08,08,11.20
2016,04,30,08,09,11.20
2016,04,30,08,10,11.10
2016,04,30,08,11,11.10
2016,04,30,08,12,11.10
2016,04,30,08,13,11.10
2016,04,30,08,14,11.10
2016,04,30,08,15,11.10
2016,04,30,08,16,11.20
2016,04,30,08,17,11.20
2016,04,30,08,18,11.20
2016,04,30,08,19,11.20
2016,04,30,08,20,11.20
2016,04,30,08,21,11.20
2016,04,30,08,22,11.20
2016,04,30,08,23,11.20
2016,04,30,08,24,11.20
2016,04,30,08,25,11.20
2016,04,30,08,26,11.20
2016,04,30,08,27,11.30
2016,04,30,08,28,11.30
2016,04,30,08,29,11.30
2016,04,30,08,30,11.40
2016,04,30,08,31,11.40
2016,04,30,08,32,11.40
2016,04,30,08,33,11.50
2016,04,30,08,34,11.50
2016,04,30,08,35,11.50
2016,04,30,08,36,11.50
2016,04,30,08,37,11.40
2016,04,30,08,38,11.40
2016,04,30,08,39,11.40
2016,04,30,08,40,11.40
2016,04,30,08,41,11.40
2016,04,30,08,42,11.40
2016,04,30,08,43,11.40
2016,04,30,08,44,11.40
2016,04,30,08,45,11.40
2016,04,30,08,46,11.40
2016,04,30,08,47,11.50
2016,04,30,08,48,11.60
2016,04,30,08,49,11.70
2016,04,30,08,50,11.70
2016,04,30,08,51,11.70
2016,04,30,08,52,11.70
2016,04,30,08,53,11.80
2016,04,30,08,54,11.80
2016,04,30,08,55,11.80
2016,04,30,08,56,11.70
2016,04,30,08,57,11.80
2016,04,30,08,58,11.80
2016,04,30,08,59,11.80
2016,04,30,09,00,11.80
2016,04,30,09,01,11.80
2016,04,30,09,02,11.80
2016,04,30,09,03,11.70
2016,04,30,09,04,11.70
2016,04,30,09,05,11.60
2016,04,30,09,06,11.60
2016,04,30,09,07,11.70
2016,04,30,09,08,11.70
2016,04,30,09,09,11.70
2016,04,30,09,10,11.70
2016,04,30,09,11,11.70
2016,04,30,09,12,11.70
2016,04,30,09,13,11.70
2016,04,30,09,14,11.70
2016,04,30,09,15,11.70
2016,04,30,09,16,11.70
2016,04,30,09,17,11.70
2016,04,30,09,18,11.80
2016,04,30,09,19,11.80
2016,04,30,09,20,11.90
2016,04,30,09,21,11.90
2016,04,30,09,22,11.90
2016,04,30,09,23,11.80
2016,04,30,09,24,11.80
2016,04,30,09,25,11.80
2016,04,30,09,26,11.80
2016,04,30,09,27,11.80
2016,04,30,09,28,11.90
2016,04,30,09,29,11.90
2016,04,30,09,30,12.00
2016,04,30,09,31,12.10
2016,04,30,09,32,12.10
2016,04,30,09,33,12.20
2016,04,30,09,34,12.30
2016,04,30,09,35,12.30
2016,04,30,09,36,12.40
2016,04,30,09,37,12.50
2016,04,30,09,38,12.60
2016,04,30,09,39,12.60
2016,04,30,09,40,12.60
2016,04,30,09,41,12.60
2016,04,30,09,42,12.60
2016,04,30,09,43,12.50
2016,04,30,09,44,12.50
2016,04,30,09,45,12.50
2016,04,30,09,46,12.50
2016,04,30,09,47,12.50
2016,04,30,09,48,12.50
2016,04,30,09,49,12.50
2016,04,30,09,50,12.50
2016,04,30,09,51,12.50
2016,04,30,09,52,12.60
2016,04,30,09,53,12.60
2016,04,30,09,54,12.60
2016,04,30,09,55,12.70
2016,04,30,09,56,12.70
2016,04,30,09,57,12.70
2016,04,30,09,58,12.70
2016,04,30,09,59,12.70
2016,04,30,10,00,12.70
2016,04,30,10,01,12.70
2016,04,30,10,02,12.70
2016,04,30,10,03,12.70
2016,04,30,10,04,12.70
2016,04,30,10,05,12.70
2016,04,30,10,06,12.60
2016,04,30,10,07,12.60
2016,04,30,10,08,12.60
2016,04,30,10,09,12.60
2016,04,30,10,10,12.60
2016,04,30,10,11,12.60
2016,04,30,10,12,12.60
2016,04,30,10,13,12.60
2016,04,30,10,14,12.60
2016,04,30,10,15,12.70
2016,04,30,10,16,12.70
2016,04,30,10,17,12.80
2016,04,30,10,18,12.90
2016,04,30,10,19,13.00
2016,04,30,10,20,13.00
2016,04,30,10,21,13.00
2016,04,30,10,22,13.00
2016,04,30,10,23,12.90
2016,04,30,10,24,13.00
2016,04,30,10,25,13.10
2016,04,30,10,26,13.10
2016,04,30,10,27,13.10
2016,04,30,10,28,13.10
2016,04,30,10,29,13.10
2016,04,30,10,30,13.20
2016,04,30,10,31,13.20
2016,04,30,10,32,13.20
2016,04,30,10,33,13.30
2016,04,30,10,34,13.40
2016,04,30,10,35,13.40
2016,04,30,10,36,13.40
2016,04,30,10,37,13.40
2016,04,30,10,38,13.40
2016,04,30,10,39,13.40
2016,04,30,10,40,13.40
2016,04,30,10,41,13.40
2016,04,30,10,42,13.40
2016,04,30,10,43,13.40
2016,04,30,10,44,13.40
2016,04,30,10,45,13.40
2016,04,30,10,46,13.40
2016,04,30,10,47,13.40
2016,04,30,10,48,13.30
2016,04,30,10,49,13.30
2016,04,30,10,50,13.40
2016,04,30,10,51,13.30
2016,04,30,10,52,13.30
2016,04,30,10,53,13.20
2016,04,30,10,54,13.20
2016,04,30,10,55,13.10
2016,04,30,10,56,13.10
2016,04,30,10,57,13.10
2016,04,30,10,58,13.10
2016,04,30,10,59,13.00
2016,04,30,11,00,13.00
2016,04,30,11,01,12.90
2016,04,30,11,02,12.90
2016,04,30,11,03,12.90
2016,04,30,11,04,12.80
2016,04,30,11,05,12.70
2016,04,30,11,06,12.70
2016,04,30,11,07,12.70
2016,04,30,11,08,12.70
2016,04,30,11,09,12.80
2016,04,30,11,10,12.80
2016,04,30,11,11,12.80
2016,04,30,11,12,12.80
2016,04,30,11,13,12.80
2016,04,30,11,14,12.90
2016,04,30,11,15,12.90
2016,04,30,11,16,12.90
2016,04,30,11,17,13.00
2016,04,30,11,18,13.00
2016,04,30,11,19,13.10
2016,04,30,11,20,13.20
2016,04,30,11,21,13.30
2016,04,30,11,22,13.40
2016,04,30,11,23,13.50
2016,04,30,11,24,13.60
2016,04,30,11,25,13.60
2016,04,30,11,26,13.70
2016,04,30,11,27,13.70
2016,04,30,11,28,13.70
2016,04,30,11,29,13.70
2016,04,30,11,30,13.60
2016,04,30,11,31,13.50
2016,04,30,11,32,13.50
2016,04,30,11,33,13.40
2016,04,30,11,34,13.40
2016,04,30,11,35,13.40
2016,04,30,11,36,13.50
2016,04,30,11,37,13.50
2016,04,30,11,38,13.60
2016,04,30,11,39,13.70
2016,04,30,11,40,13.70
2016,04,30,11,41,13.70
2016,04,30,11,42,13.80
2016,04,30,11,43,13.80
2016,04,30,11,44,13.70
2016,04,30,11,45,13.70
2016,04,30,11,46,13.60
2016,04,30,11,47,13.50
2016,04,30,11,48,13.50
2016,04,30,11,49,13.50
2016,04,30,11,50,13.60
2016,04,30,11,51,13.60
2016,04,30,11,52,13.60
2016,04,30,11,53,13.60
2016,04,30,11,54,13.60
2016,04,30,11,55,13.60
2016,04,30,11,56,13.50
2016,04,30,11,57,13.50
2016,04,30,11,58,13.50
2016,04,30,11,59,13.40
2016,04,30,12,00,13.40
2016,04,30,12,01,13.40
2016,04,30,12,02,13.40
2016,04,30,12,03,13.50
2016,04,30,12,04,13.50
2016,04,30,12,05,13.50
2016,04,30,12,06,13.60
2016,04,30,12,07,13.60
2016,04,30,12,08,13.50
2016,04,30,12,09,13.50
2016,04,30,12,10,13.50
2016,04,30,12,11,13.50
2016,04,30,12,12,13.50
2016,04,30,12,13,13.50
2016,04,30,12,14,13.50
2016,04,30,12,15,13.50
2016,04,30,12,16,13.40
2016,04,30,12,17,13.40
2016,04,30,12,18,13.50
2016,04,30,12,19,13.50
2016,04,30,12,20,13.70
2016,04,30,12,21,13.70
2016,04,30,12,22,13.80
2016,04,30,12,23,13.90
2016,04,30,12,24,13.90
2016,04,30,12,25,14.00
2016,04,30,12,26,14.10
2016,04,30,12,27,14.10
2016,04,30,12,28,14.20
2016,04,30,12,29,14.20
2016,04,30,12,30,14.20
2016,04,30,12,31,14.20
2016,04,30,12,32,14.10
2016,04,30,12,33,14.10
2016,04,30,12,34,14.00
2016,04,30,12,35,14.00
2016,04,30,12,36,14.00
2016,04,30,12,37,14.00
2016,04,30,12,38,13.90
2016,04,30,12,39,13.90
2016,04,30,12,40,13.90
2016,04,30,12,41,13.90
2016,04,30,12,42,13.90
2016,04,30,12,43,13.90
2016,04,30,12,44,13.90
2016,04,30,12,45,13.90
2016,04,30,12,46,13.90
2016,04,30,12,47,13.90
2016,04,30,12,48,13.90
2016,04,30,12,49,13.90
2016,04,30,12,50,14.00
2016,04,30,12,51,14.10
2016,04,30,12,52,14.20
2016,04,30,12,53,14.40
2016,04,30,12,54,14.40
2016,04,30,12,55,14.50
2016,04,30,12,56,14.60
2016,04,30,12,57,14.60
2016,04,30,12,58,14.60
2016,04,30,12,59,14.70
2016,04,30,13,00,14.70
2016,04,30,13,01,14.70
2016,04,30,13,02,14.70
2016,04,30,13,03,14.80
2016,04,30,13,04,14.80
2016,04,30,13,05,14.80
2016,04,30,13,06,14.80
2016,04,30,13,07,14.70
2016,04,30,13,08,14.70
2016,04,30,13,09,14.70
2016,04,30,13,10,14.70
2016,04,30,13,11,14.70
2016,04,30,13,12,14.70
2016,04,30,13,13,14.70
2016,04,30,13,14,14.70
2016,04,30,13,15,14.80
2016,04,30,13,16,14.90
2016,04,30,13,17,15.00
2016,04,30,13,18,15.10
2016,04,30,13,19,15.10
2016,04,30,13,20,15.10
2016,04,30,13,21,15.10
2016,04,30,13,22,15.20
2016,04,30,13,23,15.20
2016,04,30,13,24,15.20
2016,04,30,13,25,15.20
2016,04,30,13,26,15.20
2016,04,30,13,27,15.20
2016,04,30,13,28,15.20
2016,04,30,13,29,15.20
2016,04,30,13,30,15.20
2016,04,30,13,31,15.20
2016,04,30,13,32,15.20
2016,04,30,13,33,15.30
2016,04,30,13,34,15.20
2016,04,30,13,35,15.20
2016,04,30,13,36,15.30
2016,04,30,13,37,15.30
2016,04,30,13,38,15.40
2016,04,30,13,39,15.40
2016,04,30,13,40,15.40
2016,04,30,13,41,15.40
2016,04,30,13,42,15.40
2016,04,30,13,43,15.40
2016,04,30,13,44,15.50
2016,04,30,13,45,15.40
2016,04,30,13,46,15.40
2016,04,30,13,47,15.40
2016,04,30,13,48,15.40
2016,04,30,13,49,15.40
2016,04,30,13,50,15.50
2016,04,30,13,51,15.50
2016,04,30,13,52,15.40
2016,04,30,13,53,15.40
2016,04,30,13,54,15.40
2016,04,30,13,55,15.50
2016,04,30,13,56,15.50
2016,04,30,13,57,15.60
2016,04,30,13,58,15.70
2016,04,30,13,59,15.80
2016,04,30,14,00,15.90
2016,04,30,14,01,15.90
2016,04,30,14,02,15.90
2016,04,30,14,03,15.90
2016,04,30,14,04,15.90
2016,04,30,14,05,15.90
2016,04,30,14,06,15.80
2016,04,30,14,07,15.70
2016,04,30,14,08,15.70
2016,04,30,14,09,15.70
2016,04,30,14,10,15.60
2016,04,30,14,11,15.70
2016,04,30,14,12,15.70
2016,04,30,14,13,15.80
2016,04,30,14,14,15.80
2016,04,30,14,15,15.80
2016,04,30,14,16,15.90
2016,04,30,14,17,15.90
2016,04,30,14,18,15.90
2016,04,30,14,19,15.90
2016,04,30,14,20,16.00
2016,04,30,14,21,16.10
2016,04,30,14,22,16.10
2016,04,30,14,23,16.20
2016,04,30,14,24,16.10
2016,04,30,14,25,16.00
2016,04,30,14,26,16.00
2016,04,30,14,27,15.90
2016,04,30,14,28,15.90
2016,04,30,14,29,16.00
2016,04,30,14,30,16.10
2016,04,30,14,31,16.20
2016,04,30,14,32,16.20
2016,04,30,14,33,16.30
2016,04,30,14,34,16.40
2016,04,30,14,35,16.40
2016,04,30,14,36,16.50
2016,04,30,14,37,16.60
2016,04,30,14,38,16.60
2016,04,30,14,39,16.60
2016,04,30,14,40,16.60
2016,04,30,14,41,16.70
2016,04,30,14,42,16.70
2016,04,30,14,43,16.70
2016,04,30,14,44,16.70
2016,04,30,14,45,16.60
2016,04,30,14,46,16.70
2016,04,30,14,47,16.70
2016,04,30,14,48,16.70
2016,04,30,14,49,16.70
2016,04,30,14,50,16.70
2016,04,30,14,51,16.80
2016,04,30,14,52,16.70
2016,04,30,14,53,16.60
2016,04,30,14,54,16.50
2016,04,30,14,55,16.40
2016,04,30,14,56,16.40
2016,04,30,14,57,16.40
2016,04,30,14,58,16.40
2016,04,30,14,59,16.50
2016,04,30,15,00,16.60
2016,04,30,15,01,16.70
2016,04,30,15,02,16.80
2016,04,30,15,03,16.80
2016,04,30,15,04,16.90
2016,04,30,15,05,16.90
2016,04,30,15,06,16.90
2016,04,30,15,07,16.90
2016,04,30,15,08,17.00
2016,04,30,15,09,17.00
2016,04,30,15,10,17.10
2016,04,30,15,11,17.10
2016,04,30,15,12,17.00
2016,04,30,15,13,17.00
2016,04,30,15,14,17.00
2016,04,30,15,15,17.10
2016,04,30,15,16,17.10
2016,04,30,15,17,17.20
2016,04,30,15,18,17.20
2016,04,30,15,19,17.20
2016,04,30,15,20,17.20
2016,04,30,15,21,17.30
2016,04,30,15,22,17.30
2016,04,30,15,23,17.20
2016,04,30,15,24,17.10
2016,04,30,15,25,17.00
2016,04,30,15,26,16.90
2016,04,30,15,27,16.90
2016,04,30,15,28,16.80
2016,04,30,15,29,16.90
2016,04,30,15,30,16.90
2016,04,30,15,31,17.10
2016,04,30,15,32,17.20
2016,04,30,15,33,17.30
2016,04,30,15,34,17.30
2016,04,30,15,35,17.30
2016,04,30,15,36,17.20
2016,04,30,15,37,17.10
2016,04,30,15,38,17.00
2016,04,30,15,39,16.80
2016,04,30,15,40,16.70
2016,04,30,15,41,16.60
2016,04,30,15,42,16.60
2016,04,30,15,43,16.60
2016,04,30,15,44,16.60
2016,04,30,15,45,16.60
2016,04,30,15,46,16.60
2016,04,30,15,47,16.60
2016,04,30,15,48,16.60
2016,04,30,15,49,16.50
2016,04,30,15,50,16.60
2016,04,30,15,51,16.60
2016,04,30,15,52,16.60
2016,04,30,15,53,16.60
2016,04,30,15,54,16.70
2016,04,30,15,55,16.70
2016,04,30,15,56,16.80
2016,04,30,15,57,16.80
2016,04,30,15,58,16.90
2016,04,30,15,59,17.00
2016,04,30,16,00,17.10
2016,04,30,16,01,17.30
2016,04,30,16,02,17.40
2016,04,30,16,03,17.50
2016,04,30,16,04,17.70
2016,04,30,16,05,17.70
2016,04,30,16,06,17.80
2016,04,30,16,07,17.80
2016,04,30,16,08,17.80
2016,04,30,16,09,17.80
2016,04,30,16,10,17.90
2016,04,30,16,11,18.00
2016,04,30,16,12,18.10
2016,04,30,16,13,18.10
2016,04,30,16,14,18.20
2016,04,30,16,15,18.20
2016,04,30,16,16,18.20
2016,04,30,16,17,18.20
2016,04,30,16,18,18.30
2016,04,30,16,19,18.30
2016,04,30,16,20,18.40
2016,04,30,16,21,18.50
2016,04,30,16,22,18.50
2016,04,30,16,23,18.60
2016,04,30,16,24,18.60
2016,04,30,16,25,18.60
2016,04,30,16,26,18.60
2016,04,30,16,27,18.60
2016,04,30,16,28,18.60
2016,04,30,16,29,18.60
2016,04,30,16,30,18.50
2016,04,30,16,31,18.50
2016,04,30,16,32,18.50
2016,04,30,16,33,18.60
2016,04,30,16,34,18.60
2016,04,30,16,35,18.60
2016,04,30,16,36,18.60
2016,04,30,16,37,18.60
2016,04,30,16,38,18.60
2016,04,30,16,39,18.50
2016,04,30,16,40,18.50
2016,04,30,16,41,18.60
2016,04,30,16,42,18.60
2016,04,30,16,43,18.60
2016,04,30,16,44,18.50
2016,04,30,16,45,18.40
2016,04,30,16,46,18.40
2016,04,30,16,47,18.40
2016,04,30,16,48,18.30
2016,04,30,16,49,18.30
2016,04,30,16,50,18.20
2016,04,30,16,51,18.20
2016,04,30,16,52,18.10
2016,04,30,16,53,18.10
2016,04,30,16,54,18.10
2016,04,30,16,55,18.10
2016,04,30,16,56,18.10
2016,04,30,16,57,18.10
2016,04,30,16,58,18.10
2016,04,30,16,59,18.10
2016,04,30,17,00,18.20
2016,04,30,17,01,18.20
2016,04,30,17,02,18.30
2016,04,30,17,03,18.30
2016,04,30,17,04,18.30
2016,04,30,17,05,18.30
2016,04,30,17,06,18.30
2016,04,30,17,07,18.30
2016,04,30,17,08,18.30
2016,04,30,17,09,18.40
2016,04,30,17,10,18.40
2016,04,30,17,11,18.30
2016,04,30,17,12,18.30
2016,04,30,17,13,18.30
2016,04,30,17,14,18.40
2016,04,30,17,15,18.30
2016,04,30,17,16,18.30
2016,04,30,17,17,18.30
2016,04,30,17,18,18.20
2016,04,30,17,19,18.20
2016,04,30,17,20,18.20
2016,04,30,17,21,18.30
2016,04,30,17,22,18.30
2016,04,30,17,23,18.30
2016,04,30,17,24,18.30
2016,04,30,17,25,18.20
2016,04,30,17,26,18.20
2016,04,30,17,27,18.30
2016,04,30,17,28,18.30
2016,04,30,17,29,18.40
2016,04,30,17,30,18.40
2016,04,30,17,31,18.30
2016,04,30,17,32,18.20
2016,04,30,17,33,18.20
2016,04,30,17,34,18.10
2016,04,30,17,35,18.20
2016,04,30,17,36,18.20
2016,04,30,17,37,18.30
2016,04,30,17,38,18.30